Погода в Скалете

Греция     35°23′23″N   24°36′51″E
темп.,
°C
ветер,
м/с
пор.,
м/с
влажн.,
%
обл.,
%
осадки,
мм/ч
давл.,
гПа
погр.,
м
17 апреля, сб
сб1700:00+17всв2279100 0.1 101140
03:00+17вюв1274100 0.1 100923
06:00+18ссв227037 0.0 100729
09:00+19юз576642 0.0 100763
12:00+18з6977100 0.0 1009106
15:00+18сз5679100 0.0 100988
18:00+18сз4481100 0.0 101077
21:00+21ююз7954100 0.0 100850
18 апреля, вс
вс1800:00+19з5675100 0.0 101157
03:00+17сз5786100 0.0 1012123
06:00+17ссв3482100 0.0 101147
09:00+17юв3484100 0.0 101244
12:00+17ю338276 0.0 101456
15:00+19ссз5576100 0.0 1014127
18:00+19ю2277100 0.0 101420
21:00+19сз4475100 0.0 101530
19 апреля, пн
пн1900:00+18юв1179100 0.0 101511
03:00+18ссз4476100 0.0 101226
06:00+16зсз9128699 0.0 1014397
09:00+16зсз8118250 0.0 1015550
12:00+16зсз9128274 0.0 1014549
15:00+16зсз121474100 0.0 1014805
18:00+16зсз131474100 0.0 1014781
21:00+16зсз111368100 0.0 1015931
20 апреля, вт
вт2000:00+16зсз912681 0.0 1015976
03:00+15з811660 0.0 1015940
06:00+15з811650 0.0 1015850
09:00+15з710620 0.0 1017849
12:00+16зсз89660 0.0 1017548
15:00+16сз1112720 0.0 1017580
18:00+16зсз1012710 0.0 1017543
21:00+16зсз810670 0.0 1017478
21 апреля, ср
ср2100:00+16з35605 0.0 1018393
03:00+16зюз45590 0.0 1018346
06:00+16з35591 0.0 1018352
09:00+16з3358100 0.0 1019239
12:00+16зсз557021 0.0 1019267
15:00+16сз457414 0.0 1019261
18:00+15зюз22713 0.0 1019169
21:00+16ссв12690 0.0 101972